COSMOS 1692

Satellite information

Favourite Embed

Satellite Type and Status

PAYLOADIN ORBIT

Key statistics

Satellite COSMOS 1692 at a glance.

Uptime

14679

Days in orbit

Revolutions

≈ 12.6

Per day

Orbit

LEO

Low Earth Orbit

Inclination

82.6

Latest

Satellite identification and parameters

Extended collection of information and parameters for COSMOS 1692.

Object identification

Identified? True

Debris? False

Object name: COSMOS 1692

International designator: 1985-094C

Object number (NORAD): 16140

Object ID (CCSDS): 16140

Country: COMMONWEALTH OF INDEPENDENT STATES (CIS)

Current information (Y/N): Y

RCS size: MEDIUM

Orbital parameters

Period: 113.842 minutes

Inclination: 82.6007 deg

SMA: 7780.864 km

Apoapsis: 1417.203 km

Periapsis: 1388.254 km

RAAN: 347.8936 deg

Eccentricy: 0.0018603

Argument of periapsis: 66.5757 deg

Mean anomaly: 50.6067 deg

Mean motion: 12.64914194 rev/day

Mean motion (dot): 0.0000001 rev/day2

B* drag term: -0.000004849388 1/REarth

Two-line elements (TLE)

Creation date: Dec. 16, 2025, 2:19 a.m.

Reference frame: TEME

Reference center: EARTH

Epoch: Dec. 15, 2025, 11:45 a.m. UTC

TLE line 0: 0 COSMOS 1692

TLE line 1: 1 16140U 85094C 25349.49010681 .00000010 00000-0 -48494-5 0 9996

TLE line 2: 2 16140 82.6007 347.8936 0018603 66.5757 50.6067 12.64914194855150

Live tracking on map

Real-time ground track for satellite COSMOS 1692.

In-orbit conjunctions

A list of the most updated potential collisions computed for object COSMOS 1692.

Target Orbit TCA Probability of collision Miss distance Type
COSMOS 1823 DEB LEO 2025-12-06 09:27:34 0.001608442 186.0 (m) DEBRIS
THORAD DELTA 1 DEB SSO 2024-12-26 18:16:39 0.0004544998 156.0 (m) DEBRIS

Associated space launch

Second generation store-dump military communications satellite

COSMOS 1692 was lifted into orbit during the mission ‘Tsiklon-3 | Strela-3 7 to 12’, on board a Tsiklon-3 space rocket.

The launch took place on Oct. 9, 1985, 9:35 p.m. from 32/1.

For more information about the launch, click the button.

Launch to space Tsiklon-3 | Strela-3 7 to 12
Tsiklon-3 | Strela-3 7 to 12

Agency: N/A

Status: Launch Successful

Launch date: Oct. 9, 1985, 9:35 p.m. UTC

Rocket: Tsiklon-3

Launch pad: 32/1

Location: Plesetsk Cosmodrome, Russian Federation

...

Latest news about this satellite

There are no fresh news available about this satellite. Check back as we update our databases every day.


Newsletter sign-up

Weekly statistics, charts and insights to help you stay on top of the space industry.